EFTU Weather Reports


time (UTC)temp
F
wind
direction
speed
knots
gust
knots
rain 1hr
in
rain 24hr
in
rain mn
in
humidity
%
barometer
mb
20260508074732 51 9 5.2 10.4 0.00 0.00 0.00 31 1027.1
20260508072732 51 8 5.2 8.7 0.00 0.00 0.00 33 1027.0
20260508070733 51 15 3.5 6.1 0.00 0.00 0.00 35 1026.9
20260508064732 49 32 5.2 8.7 0.00 0.00 0.00 37 1026.8
20260508062732 48 18 5.2 7.8 0.00 0.00 0.00 34 1026.6
20260508060732 47 54 5.2 7.8 0.00 0.00 0.00 40 1026.3
20260508052733 43 29 3.5 5.2 0.00 0.00 0.00 55 1026.0
20260508050732 42 17 2.6 3.5 0.00 0.00 0.00 63 1025.8
20260508044733 42 18 0.9 1.7 0.00 0.00 0.00 67 1025.8
20260508042731 38 0.0 0.9 0.00 0.00 0.00 76 1025.7
20260508040731 33 283 0.9 1.7 0.00 0.00 0.00 85 1025.6
20260508034731 30 267 2.6 2.6 0.00 0.00 0.00 87 1025.5
20260508032732 29 267 2.6 3.5 0.00 0.00 0.00 88 1025.3
20260508030732 27 267 1.7 1.7 0.00 0.00 0.00 93 1025.2
20260508024731 27 253 1.7 2.6 0.00 0.00 0.00 93 1025.0
20260508022730 27 263 1.7 1.7 0.00 0.00 0.00 92 1024.6
20260508020731 27 275 1.7 2.6 0.00 0.00 0.00 87 1024.3
20260508014731 27 322 0.9 1.7 0.00 0.00 0.00 88 1024.1
20260508012731 28 0.0 0.9 0.00 0.00 0.00 90 1023.8
20260508010732 27 345 1.7 2.6 0.00 0.00 0.00 90 1023.7
20260508004732 27 353 1.7 2.6 0.00 0.00 0.00 90 1023.5
20260508002732 29 329 1.7 3.5 0.00 0.00 0.00 87 1023.3
20260507234732 31 339 1.7 2.6 0.00 0.00 0.00 80 1022.7
20260507232731 31 353 2.6 4.3 0.00 0.00 0.00 76 1022.5
20260507230731 30 1 2.6 4.3 0.00 0.00 0.00 75 1022.4
20260507224730 34 343 2.6 3.5 0.00 0.00 0.00 70 1022.2
20260507222731 33 326 1.7 2.6 0.00 0.00 0.00 67 1022.0
20260507220731 35 288 1.7 2.6 0.00 0.00 0.00 65 1021.8
20260507212730 35 315 2.6 3.5 0.00 0.00 0.00 63 1021.3
20260507210730 37 269 3.5 3.5 0.00 0.00 0.00 55 1021.0
20260507204731 38 282 3.5 3.5 0.00 0.00 0.00 54 1020.7
20260507202730 41 304 3.5 5.2 0.00 0.00 0.00 49 1020.4
20260507200731 41 313 3.5 5.2 0.00 0.00 0.00 49 1020.1
20260507194730 43 325 3.5 7.0 0.00 0.00 0.00 46 1019.8
20260507192730 44 322 2.6 5.2 0.00 0.00 0.00 44 1019.5
20260507190729 45 326 3.5 6.1 0.00 0.00 0.00 41 1019.3
20260507184730 46 336 5.2 8.7 0.00 0.00 0.00 39 1019.1
20260507182729 47 343 5.2 11.3 0.00 0.00 0.00 35 1018.9
20260507180729 49 333 5.2 8.7 0.00 0.00 0.00 32 1018.6
20260507174730 50 337 6.1 13.0 0.00 0.00 0.00 29 1018.3
20260507172729 51 333 7.8 12.2 0.00 0.00 0.00 27 1018.1
20260507170729 52 327 8.7 14.8 0.00 0.00 0.00 22 1017.9
20260507164730 53 309 8.7 13.0 0.00 0.00 0.00 20 1017.7
20260507162729 53 322 8.7 14.8 0.00 0.00 0.00 19 1017.5
20260507160730 54 318 8.7 15.6 0.00 0.00 0.00 19 1017.4
20260507154729 54 335 9.6 14.8 0.00 0.00 0.00 19 1017.2
20260507152728 54 346 9.6 16.5 0.00 0.00 0.00 18 1017.0
20260507150731 55 310 9.6 14.8 0.00 0.00 0.00 18 1016.8
20260507142730 56 291 11.3 19.1 0.00 0.00 0.00 18 1016.4
20260507140729 55 287 11.3 19.1 0.00 0.00 0.00 19 1016.3
20260507134730 56 308 9.6 17.4 0.00 0.00 0.00 19 1016.3
20260507132728 57 295 9.6 14.8 0.00 0.00 0.00 20 1016.2
20260507130729 56 280 11.3 16.5 0.00 0.00 0.00 21 1016.1
20260507124728 56 253 6.1 10.4 0.00 0.00 0.00 18 1016.2
20260507122728 56 303 3.5 12.2 0.00 0.00 0.00 18 1016.2
20260507120729 55 253 4.3 8.7 0.00 0.00 0.00 17 1016.1
20260507114729 55 286 7.8 11.3 0.00 0.00 0.00 19 1016.1
20260507112727 54 311 7.0 13.0 0.00 0.00 0.00 18 1016.3
20260507110728 55 263 3.5 7.8 0.00 0.00 0.00 19 1016.2
20260507102728 53 277 6.1 12.2 0.00 0.00 0.00 21 1016.2
20260507100727 53 307 7.0 11.3 0.00 0.00 0.00 21 1016.2
20260507094728 53 227 4.3 8.7 0.00 0.00 0.00 21 1016.1
20260507090728 52 283 5.2 10.4 0.00 0.00 0.00 21 1016.3
20260507084727 51 270 5.2 7.8 0.00 0.00 0.00 23 1016.3
20260507082728 51 280 2.6 7.0 0.00 0.00 0.00 23 1016.3
20260507080727 50 156 3.5 7.8 0.00 0.00 0.00 22 1016.3